Oconto, WI

2:05 PM CST on December 11, 2017 (GMT -0600)
Oconto Municipal

Weather History for KOCQ - April, 2014

Change the Weather History Date:

Tuesday, April 29, 2014

  Actual Average Record
Temperature  
Mean Temperature 40 °F -  
Max Temperature 43 °F 59 °F 62 °F (2013)
Min Temperature 36 °F 37 °F 28 °F (2017)
Degree Days  
Heating Degree Days 26    
Moisture  
Dew Point 38 °F    
Average Humidity 93    
Maximum Humidity 99    
Minimum Humidity 74    
Precipitation  
Precipitation 0.56 in - - ()
Sea Level Pressure  
Sea Level Pressure 29.65 in    
Wind  
Wind Speed 14 mph (NE)    
Max Wind Speed 21 mph    
Max Gust Speed 30 mph    
Visibility 7 miles    
Events      
Averages and records for this station are not official NWS values.
T = Trace of Precipitation, MM = Missing Value Source: NWS Daily Summary

Daily Weather History Graph

Daily Weather History Graph

Search for Another Location

Airport or City:

Trip Planner

Search our weather history database for the weather conditions in past years. The results will help you decide how hot, cold, wet, or windy it might be!

Date:

Astronomy

Apr. 29, 2014 Rise Set
Actual Time 5:44 AM CDT 7:54 PM CDT
Civil Twilight 5:12 AM CDT 8:26 PM CDT
Nautical Twilight 4:32 AM CDT 9:06 PM CDT
Astronomical Twilight 3:48 AM CDT 9:50 PM CDT
Moon 6:02 AM CDT (4/29) 8:35 PM CDT (4/29)
Length of Visible Light 15h 14m
Length of Day
14h 10m
New Moon, 0% of the Moon is Illuminated
Apr 29
New Moon
May 6
First Quarter
May 14
Full
May 21
Last Quarter
May 28
New

Hourly Weather History & Observations

Time (CDT) Temp. Windchill Dew Point Humidity Pressure Visibility Wind Dir Wind Speed Gust Speed Precip Events Conditions
12:15 AM 39.2 °F 29.3 °F 35.6 °F 87% 29.79 in 7.0 mi NE 20.7 mph 26.5 mph N/A   Overcast
12:35 AM 39.2 °F 32.0 °F 35.6 °F 87% 29.79 in 7.0 mi ENE 11.5 mph 28.8 mph 0.02 in   Overcast
12:55 AM 39.2 °F 30.2 °F 34.9 °F 84% 29.78 in 10.0 mi NE 17.3 mph 27.6 mph 0.03 in   Overcast
1:15 AM 38.8 °F 30.8 °F 34.9 °F 86% 29.77 in 10.0 mi ENE 13.8 mph 26.5 mph N/A   Overcast
1:35 AM 38.8 °F 29.7 °F 34.7 °F 85% 29.76 in 10.0 mi ENE 17.3 mph 24.2 mph N/A   Overcast
1:55 AM 38.8 °F 29.7 °F 34.5 °F 84% 29.75 in 10.0 mi NE 17.3 mph 23.0 mph N/A   Overcast
2:15 AM 39.2 °F 31.6 °F 34.2 °F 82% 29.75 in 10.0 mi ENE 12.7 mph 20.7 mph N/A   Overcast
2:35 AM 39.6 °F 30.6 °F 33.8 °F 80% 29.73 in 10.0 mi ENE 17.3 mph 25.3 mph N/A   Overcast
2:55 AM 40.1 °F 31.6 °F 33.1 °F 76% 29.71 in 10.0 mi ENE 16.1 mph 27.6 mph N/A   Overcast
3:15 AM 39.7 °F 30.3 °F 32.9 °F 77% 29.70 in 10.0 mi NE 19.6 mph 26.5 mph N/A   Overcast
3:35 AM 40.1 °F 31.6 °F 32.5 °F 74% 29.69 in 10.0 mi NE 16.1 mph 27.6 mph N/A   Overcast
3:55 AM 39.7 °F 30.3 °F 32.4 °F 75% 29.68 in 10.0 mi NE 19.6 mph 28.8 mph N/A   Overcast
4:15 AM 39.4 °F 29.8 °F 32.9 °F 78% 29.67 in 10.0 mi ENE 19.6 mph 29.9 mph N/A   Overcast
4:35 AM 38.5 °F 29.6 °F 33.8 °F 83% 29.66 in 10.0 mi NE 16.1 mph 27.6 mph N/A   Overcast
4:55 AM 37.8 °F 29.4 °F 34.7 °F 89% 29.66 in 4.0 mi NE 13.8 mph 25.3 mph 0.03 in   Overcast
5:15 AM 37.8 °F 29.0 °F 35.1 °F 90% 29.65 in 10.0 mi NE 15.0 mph 23.0 mph 0.02 in   Overcast
5:30 AM 37.8 °F 28.3 °F 35.2 °F 91% 29.65 in 7.0 mi ENE 17.3 mph 27.6 mph 0.04 in   Overcast
5:55 AM 37.8 °F 28.6 °F 35.6 °F 92% 29.65 in 4.0 mi NE 16.1 mph 27.6 mph 0.08 in   Overcast
6:15 AM 37.4 °F 28.9 °F 35.6 °F 93% 29.64 in 5.0 mi NE 13.8 mph 27.6 mph 0.04 in   Overcast
6:35 AM 37.8 °F 29.0 °F 35.6 °F 92% 29.64 in 4.0 mi ENE 15.0 mph 24.2 mph 0.04 in   Overcast
6:50 AM 37.4 °F 28.5 °F 35.6 °F 93% 29.64 in 2.5 mi ENE 15.0 mph 24.2 mph 0.07 in   Overcast
7:15 AM 37.4 °F 28.2 °F 35.6 °F 93% 29.64 in 5.0 mi NE 16.1 mph 23.0 mph 0.02 in   Overcast
7:35 AM 37.2 °F 27.9 °F 35.6 °F 94% 29.63 in 3.0 mi NE 16.1 mph 25.3 mph 0.07 in   Overcast
7:55 AM 36.7 °F 26.3 °F 35.6 °F 96% 29.62 in 1.5 mi NE 19.6 mph 27.6 mph 0.23 in   Overcast
8:15 AM 36.5 °F 26.3 °F 35.1 °F 95% 29.60 in 3.0 mi NE 18.4 mph 27.6 mph 0.03 in   Overcast
8:35 AM 36.7 °F 28.0 °F 35.4 °F 95% 29.59 in 7.0 mi NE 13.8 mph 28.8 mph 0.03 in   Overcast
8:55 AM 37.4 °F 28.9 °F 35.8 °F 94% 29.63 in 7.0 mi ENE 13.8 mph 20.7 mph 0.04 in   Overcast
9:15 AM 37.0 °F 28.9 °F 35.8 °F 95% 29.62 in 10.0 mi ENE 12.7 mph 19.6 mph N/A   Overcast
9:35 AM 36.7 °F 29.4 °F 36.0 °F 97% 29.62 in 2.5 mi ENE 10.4 mph 24.2 mph N/A   Overcast
9:55 AM 37.4 °F 28.9 °F 36.5 °F 97% 29.60 in 3.0 mi ENE 13.8 mph 18.4 mph 0.01 in   Overcast
10:15 AM 37.8 °F 30.2 °F 37.0 °F 97% 29.61 in 4.0 mi ENE 11.5 mph 17.3 mph N/A   Overcast
10:35 AM 37.8 °F 29.8 °F 37.0 °F 97% 29.61 in 7.0 mi ENE 12.7 mph 18.4 mph N/A   Overcast
10:55 AM 37.8 °F 30.7 °F 36.9 °F 97% 29.60 in 7.0 mi NE 10.4 mph 19.6 mph N/A   Overcast
11:15 AM 37.9 °F 30.0 °F 37.4 °F 98% 29.60 in 4.0 mi ENE 12.7 mph 19.6 mph N/A   Overcast
11:35 AM 38.3 °F 31.4 °F 37.6 °F 97% 29.60 in 4.0 mi NE 10.4 mph 17.3 mph N/A   Overcast
11:55 AM 38.5 °F 30.7 °F 37.8 °F 97% 29.60 in 3.0 mi ENE 12.7 mph 20.7 mph N/A   Overcast
12:15 PM 38.8 °F 33.2 °F 37.9 °F 97% 29.60 in 4.0 mi ENE 8.1 mph 16.1 mph N/A   Overcast
12:35 PM 38.8 °F 31.6 °F 38.3 °F 98% 29.60 in 5.0 mi ENE 11.5 mph - N/A   Overcast
1:15 PM 39.9 °F 33.9 °F 39.0 °F 97% 29.59 in 4.0 mi ENE 9.2 mph 17.3 mph N/A   Overcast
1:35 PM 40.3 °F 33.9 °F 39.4 °F 97% 29.60 in 4.0 mi NE 10.4 mph - N/A   Overcast
1:55 PM 40.5 °F 34.6 °F 39.4 °F 96% 29.60 in 7.0 mi ENE 9.2 mph - N/A   Overcast
2:15 PM 40.5 °F 35.8 °F 39.6 °F 97% 29.61 in 7.0 mi NE 6.9 mph - N/A   Overcast
2:35 PM 41.0 °F 35.8 °F 39.7 °F 95% 29.61 in 10.0 mi NE 8.1 mph - N/A   Overcast
2:55 PM 41.4 °F 35.2 °F 40.3 °F 96% 29.61 in 7.0 mi NE 10.4 mph - N/A   Overcast
3:15 PM 42.1 °F 36.6 °F 40.8 °F 95% 29.60 in 10.0 mi NNE 9.2 mph - N/A   Overcast
3:35 PM 43.2 °F 39.0 °F 41.4 °F 93% 29.59 in 10.0 mi NNE 6.9 mph - N/A   Overcast
3:55 PM 43.0 °F 37.7 °F 41.0 °F 93% 29.59 in 10.0 mi North 9.2 mph - N/A   Overcast
4:15 PM 43.2 °F 39.0 °F 41.0 °F 92% 29.60 in 10.0 mi NE 6.9 mph - N/A   Overcast
4:35 PM 43.5 °F 40.9 °F 41.4 °F 92% 29.61 in 10.0 mi ENE 4.6 mph - N/A   Overcast
5:15 PM 42.4 °F 39.6 °F 41.0 °F 95% 29.64 in 7.0 mi NE 4.6 mph - N/A   Overcast
5:35 PM 42.1 °F 38.4 °F 41.0 °F 96% 29.64 in 10.0 mi NE 5.8 mph - 0.01 in   Overcast
5:55 PM 42.3 °F 37.9 °F 41.4 °F 97% 29.64 in 10.0 mi NE 6.9 mph - 0.02 in   Overcast
6:15 PM 42.3 °F 36.3 °F 41.4 °F 97% 29.63 in 10.0 mi NNE 10.4 mph - 0.01 in   Overcast
6:35 PM 41.5 °F 35.9 °F 40.6 °F 97% 29.63 in 7.0 mi NNE 9.2 mph - 0.01 in   Overcast
6:55 PM 41.5 °F 35.4 °F 41.0 °F 98% 29.63 in 10.0 mi NNE 10.4 mph - 0.01 in   Overcast
7:15 PM 41.9 °F 35.9 °F 41.0 °F 97% 29.63 in 7.0 mi NNE 10.4 mph - N/A   Overcast
7:35 PM 42.1 °F 36.6 °F 41.4 °F 97% 29.64 in 7.0 mi NNE 9.2 mph - 0.01 in   Overcast
7:55 PM 42.1 °F 37.1 °F 41.4 °F 97% 29.64 in 10.0 mi NNE 8.1 mph - 0.01 in   Overcast
8:15 PM 42.1 °F 37.7 °F 41.4 °F 97% 29.64 in 7.0 mi NNE 6.9 mph - N/A   Overcast
8:35 PM 42.1 °F - 41.2 °F 97% 29.65 in 10.0 mi Calm Calm - 0.01 in   Overcast
8:50 PM 42.1 °F 40.2 °F 41.4 °F 97% 29.65 in 10.0 mi NE 3.5 mph - 0.02 in   Overcast
9:35 PM 42.1 °F 39.2 °F 41.5 °F 98% 29.66 in 10.0 mi ENE 4.6 mph - 0.01 in   Overcast
9:55 PM 41.9 °F 38.2 °F 41.0 °F 97% 29.64 in 10.0 mi NE 5.8 mph - 0.01 in   Overcast
10:15 PM 41.4 °F 37.6 °F 41.0 °F 99% 29.64 in 10.0 mi North 5.8 mph - N/A   Overcast
10:30 PM 41.2 °F 39.2 °F 40.6 °F 98% 29.65 in 10.0 mi ENE 3.5 mph - N/A   Overcast
10:55 PM 41.0 °F 37.1 °F 40.3 °F 97% 29.65 in 10.0 mi ENE 5.8 mph - N/A   Overcast
11:15 PM 39.6 °F 35.4 °F 39.2 °F 99% 29.66 in 7.0 mi ENE 5.8 mph - N/A   Overcast
11:35 PM 38.8 °F 36.5 °F 38.5 °F 99% 29.66 in 3.0 mi ENE 3.5 mph - N/A   Overcast
11:50 PM 38.7 °F - 38.5 °F 99% 29.66 in 2.5 mi Calm Calm - N/A   Overcast